Location: Dammartin
(48.9032°N, 1.6195°E)
Time: 18:55:58
(UTC+00:00)

BlueWalker 3 - Pass Details

Date: 17 April 2024
Orbit: 482 x 494 km, 53.2° (Epoch: 22 May)

Event Time Altitude Azimuth Distance (km) Brightness Sun altitude
Rises 22:36:38 0° 268° (W) 2,579 5.8 -27.9°
Reaches altitude 10° 22:38:52 10° 274° (W) 1,699 4.9 -28.0°
Enters shadow 22:39:07 12° 276° (W) 1,600 4.7 -28.0°
